Time,TemperatureF,DewpointF,PressureIn,WindDirection,WindDirectionDegrees,WindSpeedMPH,WindSpeedGustMPH,Humidity,HourlyPrecipIn,Conditions,Clouds,dailyrainin,SolarRadiationWatts/m^2,SoftwareType,DateUTC
2013-03-13 00:13:00,26.2,5.0,30.35,ESE,116,2.0,-999.0,41,-99.99,,,0.00,0,weatherlink.com 1.10,2013-03-13 06:13:00,
2013-03-13 00:28:00,26.4,6.0,30.34,ESE,117,3.0,-999.0,41,-99.99,,,0.00,0,weatherlink.com 1.10,2013-03-13 06:28:00,
2013-03-13 00:43:00,27.1,6.0,30.34,SE,140,2.0,-999.0,40,-99.99,,,0.00,0,weatherlink.com 1.10,2013-03-13 06:43:00,
2013-03-13 00:58:00,27.6,7.0,30.33,SE,145,3.0,-999.0,41,-99.99,,,0.00,0,weatherlink.com 1.10,2013-03-13 06:58:00,
2013-03-13 01:13:00,27.9,7.0,30.32,SE,145,3.0,-999.0,41,-99.99,,,0.00,0,weatherlink.com 1.10,2013-03-13 07:13:00,
2013-03-13 01:28:00,29.3,6.0,30.32,SE,139,3.0,-999.0,38,-99.99,,,0.00,0,weatherlink.com 1.10,2013-03-13 07:28:00,
2013-03-13 01:43:00,30.1,7.0,30.32,SE,134,5.0,-999.0,37,-99.99,,,0.00,0,weatherlink.com 1.10,2013-03-13 07:43:00,
2013-03-13 01:58:00,30.5,7.0,30.31,ESE,123,3.0,-999.0,37,-99.99,,,0.00,0,weatherlink.com 1.10,2013-03-13 07:58:00,
2013-03-13 02:13:00,29.6,7.0,30.30,ESE,118,4.0,-999.0,38,-99.99,,,0.00,0,weatherlink.com 1.10,2013-03-13 08:13:00,
2013-03-13 02:28:00,30.2,7.0,30.30,SE,126,3.0,-999.0,38,-99.99,,,0.00,0,weatherlink.com 1.10,2013-03-13 08:28:00,
2013-03-13 02:43:00,30.8,7.0,30.30,SE,128,3.0,-999.0,37,-99.99,,,0.00,0,weatherlink.com 1.10,2013-03-13 08:43:00,
2013-03-13 02:58:00,29.8,7.0,30.29,SE,143,2.0,-999.0,38,-99.99,,,0.00,0,weatherlink.com 1.10,2013-03-13 08:58:00,
2013-03-13 03:13:00,30.1,7.0,30.29,SE,126,2.0,-999.0,38,-99.99,,,0.00,0,weatherlink.com 1.10,2013-03-13 09:13:00,
2013-03-13 03:28:00,29.8,7.0,30.29,ESE,115,4.0,-999.0,39,-99.99,,,0.00,0,weatherlink.com 1.10,2013-03-13 09:28:00,
2013-03-13 03:43:00,29.9,7.0,30.28,SE,126,2.0,-999.0,38,-99.99,,,0.00,0,weatherlink.com 1.10,2013-03-13 09:43:00,
2013-03-13 03:58:00,30.0,7.0,30.29,SE,126,4.0,-999.0,38,-99.99,,,0.00,0,weatherlink.com 1.10,2013-03-13 09:58:00,
2013-03-13 04:13:00,29.9,8.0,30.28,SE,126,1.0,-999.0,39,-99.99,,,0.00,0,weatherlink.com 1.10,2013-03-13 10:13:00,
2013-03-13 04:28:00,29.6,7.0,30.28,SE,126,2.0,-999.0,39,-99.99,,,0.00,0,weatherlink.com 1.10,2013-03-13 10:28:00,
2013-03-13 04:43:00,29.2,8.0,30.27,SE,126,2.0,-999.0,40,-99.99,,,0.00,0,weatherlink.com 1.10,2013-03-13 10:43:00,
2013-03-13 04:58:00,29.0,7.0,30.28,SE,126,0.0,-999.0,40,-99.99,,,0.00,0,weatherlink.com 1.10,2013-03-13 10:58:00,
2013-03-13 05:13:00,28.5,7.0,30.28,SE,126,1.0,-999.0,41,-99.99,,,0.00,0,weatherlink.com 1.10,2013-03-13 11:13:00,
2013-03-13 05:28:00,27.9,7.0,30.28,SE,126,2.0,-999.0,41,-99.99,,,0.00,0,weatherlink.com 1.10,2013-03-13 11:28:00,
2013-03-13 05:43:00,27.8,7.0,30.28,SE,126,2.0,-999.0,42,-99.99,,,0.00,0,weatherlink.com 1.10,2013-03-13 11:43:00,
2013-03-13 05:58:00,27.7,8.0,30.27,SE,126,2.0,-999.0,43,-99.99,,,0.00,0,weatherlink.com 1.10,2013-03-13 11:58:00,
2013-03-13 06:13:00,27.7,8.0,30.28,SE,126,0.0,-999.0,43,-99.99,,,0.00,0,weatherlink.com 1.10,2013-03-13 12:13:00,
2013-03-13 06:28:00,27.8,8.0,30.27,SE,126,1.0,-999.0,43,-99.99,,,0.00,0,weatherlink.com 1.10,2013-03-13 12:28:00,
2013-03-13 06:43:00,28.0,8.0,30.27,SE,126,2.0,-999.0,43,-99.99,,,0.00,0,weatherlink.com 1.10,2013-03-13 12:43:00,
2013-03-13 06:58:00,28.0,8.0,30.28,SE,126,3.0,-999.0,43,-99.99,,,0.00,0,weatherlink.com 1.10,2013-03-13 12:58:00,
2013-03-13 07:14:00,28.2,9.0,30.28,SE,126,0.0,-999.0,44,-99.99,,,0.00,5,weatherlink.com 1.10,2013-03-13 13:14:00,
2013-03-13 07:29:00,28.5,9.0,30.28,SE,126,0.0,-999.0,44,-99.99,,,0.00,12,weatherlink.com 1.10,2013-03-13 13:29:00,
2013-03-13 07:44:00,28.5,9.0,30.28,SE,126,1.0,-999.0,44,-99.99,,,0.00,25,weatherlink.com 1.10,2013-03-13 13:44:00,
2013-03-13 07:59:00,28.7,9.0,30.28,SE,126,0.0,-999.0,44,-99.99,,,0.00,39,weatherlink.com 1.10,2013-03-13 13:59:00,
2013-03-13 08:14:00,29.2,10.0,30.28,SE,126,0.0,-999.0,44,-99.99,,,0.00,65,weatherlink.com 1.10,2013-03-13 14:14:00,
2013-03-13 08:29:00,29.9,10.0,30.28,SE,126,1.0,-999.0,43,-99.99,,,0.00,72,weatherlink.com 1.10,2013-03-13 14:29:00,
2013-03-13 08:44:00,30.9,10.0,30.28,SE,126,2.0,-999.0,42,-99.99,,,0.00,74,weatherlink.com 1.10,2013-03-13 14:44:00,
2013-03-13 08:59:00,32.6,11.0,30.28,SE,126,1.0,-999.0,41,-99.99,,,0.00,204,weatherlink.com 1.10,2013-03-13 14:59:00,
2013-03-13 09:14:00,34.4,12.0,30.28,SE,126,3.0,-999.0,39,-99.99,,,0.00,232,weatherlink.com 1.10,2013-03-13 15:14:00,
2013-03-13 09:29:00,35.4,13.0,30.28,SE,126,2.0,-999.0,39,-99.99,,,0.00,211,weatherlink.com 1.10,2013-03-13 15:29:00,
2013-03-13 09:44:00,37.1,14.0,30.27,SE,126,1.0,-999.0,39,-99.99,,,0.00,207,weatherlink.com 1.10,2013-03-13 15:44:00,
2013-03-13 09:59:00,39.7,15.0,30.27,SE,126,2.0,-999.0,36,-99.99,,,0.00,223,weatherlink.com 1.10,2013-03-13 15:59:00,
2013-03-13 10:14:00,42.1,16.0,30.27,SE,126,3.0,-999.0,35,-99.99,,,0.00,334,weatherlink.com 1.10,2013-03-13 16:14:00,
2013-03-13 10:29:00,44.2,17.0,30.27,SE,126,2.0,-999.0,34,-99.99,,,0.00,332,weatherlink.com 1.10,2013-03-13 16:29:00,
2013-03-13 10:44:00,47.2,19.0,30.27,SE,126,2.0,-999.0,32,-99.99,,,0.00,218,weatherlink.com 1.10,2013-03-13 16:44:00,
2013-03-13 10:59:00,49.5,20.0,30.27,ESE,120,2.0,-999.0,31,-99.99,,,0.00,385,weatherlink.com 1.10,2013-03-13 16:59:00,
2013-03-13 11:14:00,51.9,21.0,30.28,ESE,121,0.0,-999.0,30,-99.99,,,0.00,459,weatherlink.com 1.10,2013-03-13 17:14:00,
2013-03-13 11:29:00,54.8,23.0,30.27,East,101,0.0,-999.0,29,-99.99,,,0.00,264,weatherlink.com 1.10,2013-03-13 17:29:00,
2013-03-13 11:45:00,56.6,24.0,30.27,ESE,111,0.0,-999.0,28,-99.99,,,0.00,519,weatherlink.com 1.10,2013-03-13 17:45:00,
2013-03-13 12:00:00,57.5,25.0,30.26,SE,127,3.0,-999.0,29,-99.99,,,0.00,580,weatherlink.com 1.10,2013-03-13 18:00:00,
2013-03-13 12:15:00,59.4,27.0,30.25,ENE,70,0.0,-999.0,29,-99.99,,,0.00,619,weatherlink.com 1.10,2013-03-13 18:15:00,
2013-03-13 12:30:00,59.7,26.0,30.24,SSE,148,3.0,-999.0,28,-99.99,,,0.00,647,weatherlink.com 1.10,2013-03-13 18:30:00,
2013-03-13 12:45:00,60.2,27.0,30.24,ESE,116,3.0,-999.0,28,-99.99,,,0.00,642,weatherlink.com 1.10,2013-03-13 18:45:00,
2013-03-13 13:00:00,61.7,27.0,30.23,ESE,118,4.0,-999.0,27,-99.99,,,0.00,659,weatherlink.com 1.10,2013-03-13 19:00:00,
2013-03-13 13:15:00,61.8,27.0,30.22,East,101,3.0,-999.0,27,-99.99,,,0.00,663,weatherlink.com 1.10,2013-03-13 19:15:00,
2013-03-13 13:30:00,62.0,28.0,30.21,ESE,109,4.0,-999.0,28,-99.99,,,0.00,679,weatherlink.com 1.10,2013-03-13 19:30:00,
2013-03-13 13:45:00,63.2,29.0,30.20,SE,129,1.0,-999.0,27,-99.99,,,0.00,677,weatherlink.com 1.10,2013-03-13 19:45:00,
2013-03-13 14:00:00,64.4,29.0,30.19,North,5,3.0,-999.0,26,-99.99,,,0.00,619,weatherlink.com 1.10,2013-03-13 20:00:00,
2013-03-13 14:15:00,63.9,29.0,30.18,East,101,0.0,-999.0,27,-99.99,,,0.00,584,weatherlink.com 1.10,2013-03-13 20:15:00,
2013-03-13 14:30:00,64.1,28.0,30.17,ESE,121,0.0,-999.0,26,-99.99,,,0.00,438,weatherlink.com 1.10,2013-03-13 20:30:00,
2013-03-13 14:45:00,65.2,29.0,30.16,WSW,239,3.0,-999.0,26,-99.99,,,0.00,608,weatherlink.com 1.10,2013-03-13 20:45:00,
2013-03-13 15:00:00,65.4,29.0,30.16,ESE,105,0.0,-999.0,26,-99.99,,,0.00,599,weatherlink.com 1.10,2013-03-13 21:00:00,
2013-03-13 15:15:00,65.9,29.0,30.15,ESE,106,0.0,-999.0,25,-99.99,,,0.00,334,weatherlink.com 1.10,2013-03-13 21:15:00,
2013-03-13 15:30:00,64.9,29.0,30.15,SW,222,0.0,-999.0,26,-99.99,,,0.00,244,weatherlink.com 1.10,2013-03-13 21:30:00,
2013-03-13 15:45:00,65.4,29.0,30.14,ESE,117,1.0,-999.0,26,-99.99,,,0.00,207,weatherlink.com 1.10,2013-03-13 21:45:00,
2013-03-13 16:00:00,65.3,29.0,30.13,South,170,2.0,-999.0,26,-99.99,,,0.00,450,weatherlink.com 1.10,2013-03-13 22:00:00,
2013-03-13 16:15:00,65.9,29.0,30.13,ESE,111,3.0,-999.0,25,-99.99,,,0.00,420,weatherlink.com 1.10,2013-03-13 22:15:00,
2013-03-13 16:30:00,66.0,30.0,30.13,ESE,121,0.0,-999.0,26,-99.99,,,0.00,371,weatherlink.com 1.10,2013-03-13 22:30:00,
2013-03-13 16:45:00,67.9,31.0,30.13,SSW,199,0.0,-999.0,25,-99.99,,,0.00,320,weatherlink.com 1.10,2013-03-13 22:45:00,
2013-03-13 17:00:00,67.9,31.0,30.13,SSW,199,0.0,-999.0,25,-99.99,,,0.00,262,weatherlink.com 1.10,2013-03-13 23:00:00,
2013-03-13 17:15:00,67.9,31.0,30.12,NNE,19,0.0,-999.0,25,-99.99,,,0.00,202,weatherlink.com 1.10,2013-03-13 23:15:00,
2013-03-13 17:30:00,67.8,31.0,30.12,NNE,19,0.0,-999.0,25,-99.99,,,0.00,142,weatherlink.com 1.10,2013-03-13 23:30:00,
2013-03-13 17:46:00,66.2,30.0,30.11,NNE,28,0.0,-999.0,26,-99.99,,,0.00,114,weatherlink.com 1.10,2013-03-13 23:46:00,
2013-03-13 18:00:00,64.6,30.0,30.11,NE,46,0.0,-999.0,27,-99.99,,,0.00,76,weatherlink.com 1.10,2013-03-14 00:00:00,
2013-03-13 18:16:00,63.1,29.0,30.10,SE,144,3.0,-999.0,28,-99.99,,,0.00,60,weatherlink.com 1.10,2013-03-14 00:16:00,
2013-03-13 18:31:00,62.1,28.0,30.11,SE,128,0.0,-999.0,28,-99.99,,,0.00,28,weatherlink.com 1.10,2013-03-14 00:31:00,
2013-03-13 18:46:00,60.7,28.0,30.11,SE,128,0.0,-999.0,29,-99.99,,,0.00,11,weatherlink.com 1.10,2013-03-14 00:46:00,
2013-03-13 19:01:00,59.2,28.0,30.11,SE,128,0.0,-999.0,30,-99.99,,,0.00,0,weatherlink.com 1.10,2013-03-14 01:01:00,
2013-03-13 19:16:00,57.8,27.0,30.11,SE,128,2.0,-999.0,31,-99.99,,,0.00,0,weatherlink.com 1.10,2013-03-14 01:16:00,
2013-03-13 19:31:00,55.7,27.0,30.11,SE,128,0.0,-999.0,33,-99.99,,,0.00,0,weatherlink.com 1.10,2013-03-14 01:31:00,
2013-03-13 19:46:00,54.4,26.0,30.11,SE,128,0.0,-999.0,34,-99.99,,,0.00,0,weatherlink.com 1.10,2013-03-14 01:46:00,
2013-03-13 20:01:00,53.3,26.0,30.11,SE,128,0.0,-999.0,35,-99.99,,,0.00,0,weatherlink.com 1.10,2013-03-14 02:01:00,
2013-03-13 20:16:00,52.2,26.0,30.11,West,264,1.0,-999.0,36,-99.99,,,0.00,0,weatherlink.com 1.10,2013-03-14 02:16:00,
2013-03-13 20:31:00,51.3,26.0,30.11,West,264,0.0,-999.0,37,-99.99,,,0.00,0,weatherlink.com 1.10,2013-03-14 02:31:00,
2013-03-13 20:46:00,50.7,26.0,30.12,West,265,0.0,-999.0,38,-99.99,,,0.00,0,weatherlink.com 1.10,2013-03-14 02:46:00,
2013-03-13 21:01:00,50.1,26.0,30.11,West,265,0.0,-999.0,39,-99.99,,,0.00,0,weatherlink.com 1.10,2013-03-14 03:01:00,
2013-03-13 21:16:00,50.0,26.0,30.11,West,265,0.0,-999.0,39,-99.99,,,0.00,0,weatherlink.com 1.10,2013-03-14 03:16:00,
2013-03-13 21:46:00,51.7,27.0,30.12,WNW,285,0.0,-999.0,38,-99.99,,,0.00,0,weatherlink.com 1.10,2013-03-14 03:46:00,
2013-03-13 22:46:00,51.3,27.0,30.12,WNW,299,0.0,-999.0,39,-99.99,,,0.00,0,weatherlink.com 1.10,2013-03-14 04:46:00,
2013-03-13 23:01:00,51.1,27.0,30.12,WNW,300,1.0,-999.0,39,-99.99,,,0.00,0,weatherlink.com 1.10,2013-03-14 05:01:00,
2013-03-13 23:31:00,51.7,28.0,30.11,WNW,296,2.0,-999.0,40,-99.99,,,0.00,0,weatherlink.com 1.10,2013-03-14 05:31:00,